Location: Edemissen
(51.7689°N, 9.8634°E)
Time: 23:03:30
(UTC+00:00)

DMSP 5D-2 F13 DEB - Visible Passes

Search period start: 18 November 2025 00:00
Search period end: 28 November 2025 00:00
Orbit: 785 x 816 km, 98.9° (Epoch: 16 November)

Date Brightness Start Highest point End Pass type
(mag) Time Alt. Az. Time Alt. Az. Time Alt. Az.
18 Nov ? 05:05:09 10° ENE 05:06:09 10° E 05:07:08 10° E visible
18 Nov ? 16:27:43 10° ESE 16:32:23 32° ENE 16:37:04 10° N visible
18 Nov ? 18:06:42 10° S 18:11:52 50° W 18:17:04 10° NNW visible
19 Nov ? 16:02:12 10° ESE 16:06:11 22° NE 16:10:10 10° N visible
19 Nov ? 17:39:57 10° SSE 17:45:18 79° WSW 17:50:40 10° NNW visible
19 Nov ? 19:23:07 10° WSW 19:25:49 14° W 19:28:33 10° NW visible
20 Nov ? 05:49:14 10° NE 05:53:33 25° E 05:57:48 10° SSE visible
20 Nov ? 17:13:32 10° SSE 17:18:49 67° ENE 17:24:07 10° NNW visible
20 Nov ? 18:54:50 10° SW 18:58:57 22° W 19:03:06 10° NW visible
21 Nov ? 05:23:36 10° NE 05:26:41 16° E 05:29:44 10° ESE visible
21 Nov ? 16:47:25 10° SE 16:52:25 43° ENE 16:57:26 10° N visible
21 Nov ? 18:27:19 10° SSW 18:32:11 35° W 18:37:03 10° NNW visible
22 Nov ? 16:21:37 10° ESE 16:26:07 29° ENE 16:30:37 10° N visible
22 Nov ? 18:00:16 10° S 18:05:30 56° WSW 18:10:45 10° NNW visible
23 Nov ? 06:09:03 10° NNE 06:13:51 35° E 06:18:35 10° SSE visible
23 Nov ? 15:56:09 10° E 15:59:53 20° NE 16:03:37 10° N visible
23 Nov ? 17:33:34 10° SSE 17:38:54 88° WSW 17:44:16 10° NNW visible
23 Nov ? 19:16:10 10° SW 19:19:20 16° W 19:22:31 10° NW visible
24 Nov ? 05:43:00 10° NE 05:47:02 22° E 05:51:02 10° SE visible
24 Nov ? 17:07:11 10° SSE 17:12:25 60° ENE 17:17:39 10° N visible
24 Nov ? 18:48:05 10° SSW 18:52:26 25° W 18:56:48 10° NW visible
25 Nov ? 05:17:32 10° NE 05:20:06 14° E 05:22:39 10° ESE visible
25 Nov ? 16:41:06 10° SE 16:45:59 39° ENE 16:50:53 10° N visible
25 Nov ? 18:20:40 10° SSW 18:25:39 40° W 18:30:38 10° NNW visible
26 Nov ? 16:15:20 10° ESE 16:19:39 26° ENE 16:23:59 10° N visible
26 Nov ? 17:53:40 10° S 17:58:57 63° WSW 18:04:14 10° NNW visible
26 Nov ? 19:38:27 10° W 19:39:39 11° W 19:40:52 10° WNW visible
27 Nov ? 06:02:35 10° NNE 06:07:13 31° E 06:11:47 10° SSE visible
27 Nov ? 17:27:00 10° SSE 17:32:20 83° ENE 17:37:40 10° NNW visible
27 Nov ? 19:09:05 10° SW 19:12:38 18° W 19:16:12 10° NW visible
